Tracking 29892 objects as of 21-Nov-2024
HD Live streaming from Space Station
objects crossing your sky now

PSLV DEB

Track PSLV DEB now!
10-day predictions


NORAD ID: 27123
Int'l Code: 2001-049BT
Perigee: 641.3 km
Apogee: 700.7 km
Inclination: 97.3 °
Period: 98.0 minutes
Semi major axis: 7042 km
RCS: 0.026 m2 (small)
Launch date: October 22, 2001
Source: India (IND)
Launch site: SRIHARIKOTA (SRI)

Note: This is SATELLITE DEBRIS
Your satellite tracking list
Your tracking list is empty




NASA's NSSDC Master Catalog

Two Line Element Set (TLE):
1 27123U 01049BT  24325.75338328  .00003321  00000-0  56443-3 0  9998
2 27123  97.3173 328.5666 0042140 107.2690 253.3135 14.69118393222024
Source of the keplerian elements: AFSPC